[[{"header":{"parameterUnit":"m.s-1","parameterCategory":2,"la1":30.2991,"la2":30.254,"lo1":-89.0895,"lo2":-89.0444,"dy":0.0017,"dx":0.0017,"nx":28,"ny":28,"refTime":"2025-07-22T03:00:00:Z","depth":"0","parameterNumber":2,"parameterNumberName":"U-component_of_CURRENTS"},"data":[0,0,0,0,0,0,0,0,0,0,0,0,0,0,0,0,0,0,0,0,0,0,0,0,0,0,0,0,0,0,0,0,0,0,0,0,0,0,0,0,0,0,0,0,0,0,0,0,0,0,0,0,0,0,0,0,0,0,-0.2625,-0.2625,0,-0.2586,-0.2586,-0.2585,-0.2528,-0.2527,-0.2526,-0.2525,-0.2499,-0.2499,-0.2499,0,0,0,0,0,0,0,0,0,0,0,0,0,-0.266,-0.2659,-0.2625,-0.2625,-0.2624,-0.2586,-0.2586,-0.2585,-0.2528,-0.2527,-0.2526,-0.2525,-0.2499,-0.2499,-0.2499,0,0,0,0,0,0,0,0,0,0,0,0,0,-0.2635,-0.2659,-0.2625,-0.2591,-0.2588,-0.2586,-0.2586,-0.2585,-0.2528,-0.2527,-0.2525,-0.2524,-0.2499,-0.2499,-0.2499,-0.2532,0,0,-0.25,-0.25,0,0,0,0,0,0,0,0,-0.2637,-0.2634,-0.2597,-0.2594,-0.259,-0.256,-0.2588,-0.2568,-0.2529,-0.2551,-0.2525,-0.2523,-0.2522,-0.252,-0.2516,-0.253,-0.2529,-0.25,-0.2501,-0.2501,-0.2501,0,0,0,0,0,0,0,-0.2638,-0.2635,-0.261,-0.2596,-0.2592,-0.2581,-0.2576,-0.2584,-0.2546,-0.2549,-0.2545,-0.2541,-0.2519,-0.2516,-0.2515,-0.2529,-0.25,-0.2501,-0.2501,-0.2501,-0.2581,-0.2583,0,0,0,0,0,0,-0.2644,-0.2637,-0.2611,-0.2609,-0.261,-0.2581,-0.2576,-0.2571,-0.2545,-0.2539,-0.2542,-0.2538,-0.2516,-0.2515,-0.2514,-0.2543,-0.2501,-0.2501,-0.2501,-0.2579,-0.2582,-0.2584,0,0,0,0,0,0,-0.2645,-0.2642,-0.2613,-0.2622,-0.2617,-0.2582,-0.2578,-0.2571,-0.2556,-0.254,-0.2534,-0.2532,-0.2515,-0.2513,-0.2521,-0.2542,-0.2501,-0.2502,-0.2577,-0.258,-0.2583,-0.2608,0,0,0,0,0,0,-0.2646,-0.2643,-0.2637,-0.2622,-0.2617,-0.261,-0.2579,-0.2572,-0.2556,-0.2551,-0.253,-0.2526,-0.2513,-0.252,-0.2521,-0.2542,-0.2502,-0.2575,-0.2578,-0.2582,-0.2604,-0.2611,-0.2617,0,0,0,0,0,-0.2648,-0.2643,-0.2637,-0.2633,-0.2611,-0.261,-0.2607,-0.2577,-0.2557,-0.2556,-0.2545,-0.2526,-0.2544,-0.2522,-0.2522,-0.2544,-0.2573,-0.2577,-0.2581,-0.2602,-0.261,-0.2616,0,0,0,0,0,0,-0.2651,-0.2637,-0.2629,-0.2619,-0.2616,-0.26,-0.2591,-0.2579,-0.2569,-0.2561,-0.2543,-0.254,-0.2567,-0.2555,-0.2531,-0.2582,-0.2559,-0.2564,-0.2575,-0.2582,-0.2588,-0.2601,-0.2502,0,0,0,0,0,-0.2653,-0.2642,-0.2637,-0.2628,-0.2628,-0.2613,-0.2606,-0.2593,-0.2584,-0.2576,-0.2564,-0.2565,-0.259,-0.2581,-0.2602,-0.2614,-0.2612,-0.2634,-0.264,-0.2645,-0.266,-0.2665,-0.2672,-0.2598,-0.2598,-0.2598,0,0,-0.2649,-0.2641,-0.2633,-0.2628,-0.262,-0.2627,-0.2604,-0.2598,-0.2605,-0.2579,-0.258,-0.2593,-0.2605,-0.2629,-0.2639,-0.2613,-0.2669,-0.2651,-0.2654,-0.2667,-0.267,-0.2677,-0.2683,-0.2601,-0.26,-0.26,0,0,-0.2639,-0.2636,-0.2625,-0.2631,-0.2626,-0.263,-0.263,-0.2622,-0.2618,-0.2631,-0.2629,-0.2659,-0.2659,-0.2685,-0.2697,-0.2753,-0.2716,-0.2747,-0.2765,-0.277,-0.2775,-0.278,-0.2791,-0.2797,-0.273,-0.273,-0.273,0,-0.2631,-0.262,-0.2623,-0.2625,-0.2627,-0.2634,-0.2636,-0.2648,-0.2643,-0.2652,-0.2635,-0.2686,-0.27,-0.2748,-0.2769,-0.2769,-0.275,-0.2728,-0.2775,-0.278,-0.2784,-0.2794,-0.28,-0.2731,-0.2731,-0.2731,-0.2731,0,-0.2618,-0.2614,-0.2613,-0.2619,-0.2634,-0.2635,-0.2662,-0.2677,-0.2678,-0.2688,-0.2733,-0.2758,-0.2782,-0.2801,-0.2799,-0.2844,-0.2815,-0.2793,-0.2747,-0.2792,-0.2801,-0.2806,-0.2734,-0.2733,-0.2733,-0.2732,0,0,-0.2568,-0.2595,-0.2592,-0.2592,-0.2628,-0.2631,-0.2676,-0.2706,-0.2723,-0.2748,-0.2768,-0.2841,-0.2846,-0.2864,-0.2871,-0.2879,-0.2909,-0.2836,-0.2835,-0.2833,-0.2903,-0.2858,-0.2859,-0.2863,-0.2864,-0.2865,-0.2897,0,-0.2544,-0.2541,-0.2574,-0.2581,-0.2577,-0.2628,-0.2666,-0.2706,-0.2737,-0.2766,-0.2821,-0.2852,-0.287,-0.2874,-0.2895,-0.2906,-0.2923,-0.2903,-0.2874,-0.2874,-0.2816,-0.2865,-0.2645,-0.2652,-0.2902,-0.2903,-0.2904,0,-0.2498,-0.2506,-0.2503,-0.2545,-0.2552,-0.2571,-0.2626,-0.2661,-0.2737,-0.2763,-0.2817,-0.285,-0.2912,-0.2901,-0.2953,-0.292,-0.2925,-0.2931,-0.2931,-0.2886,-0.2839,-0.2649,-0.2652,-0.2433,-0.2912,-0.2911,-0.291,0,-0.2412,-0.2448,-0.2439,-0.2452,-0.2512,-0.2528,-0.2566,-0.2644,-0.2678,-0.2751,-0.2781,-0.2852,-0.2877,-0.2905,-0.2951,-0.293,-0.2986,-0.2957,-0.2934,-0.2931,-0.2744,-0.2722,-0.252,-0.2999,-0.2999,-0.2998,-0.2998,0,-0.2338,-0.2325,-0.2394,-0.238,-0.239,-0.2459,-0.2482,-0.2538,-0.2622,-0.2673,-0.2758,-0.2811,-0.287,-0.2919,-0.2949,-0.2965,-0.2989,-0.2959,-0.294,-0.2748,-0.2728,-0.2529,-0.2564,-0.3,-0.2999,-0.2999,-0.2999,0,-0.22,-0.225,-0.2242,-0.2311,-0.2333,-0.2329,-0.242,-0.2453,-0.2539,-0.2609,-0.2635,-0.2762,-0.2837,-0.2907,-0.2959,-0.2952,-0.2896,-0.2981,-0.2764,-0.272,-0.248,-0.253,-0.2563,-0.2511,-0.2949,-0.2948,-0.2947,0,-0.2113,-0.2096,-0.2164,-0.2182,-0.2201,-0.2231,-0.2271,-0.238,-0.2437,-0.2591,-0.2626,-0.273,-0.2814,-0.2884,-0.2872,-0.2905,-0.2875,-0.2721,-0.2667,-0.2448,-0.2489,-0.2578,-0.2538,-0.2428,-0.2423,-0.2419,-0.2416,0,-0.1955,-0.1989,-0.1994,-0.2044,-0.208,-0.2135,-0.2205,-0.2247,-0.2399,-0.2479,-0.2608,-0.2682,-0.2747,-0.2674,-0.2699,-0.2698,-0.2574,-0.2642,-0.2443,-0.211,-0.2167,-0.2108,-0.2443,-0.238,-0.2383,-0.2386,-0.2388,-0.2389,-0.1839,-0.1817,-0.1863,-0.1902,-0.1964,-0.2047,-0.2067,-0.2184,-0.2276,-0.239,-0.2525,-0.2519,-0.2402,-0.2405,-0.2391,-0.2077,-0.2388,-0.1971,-0.2066,-0.2187,-0.2085,-0.2369,-0.2271,-0.2273,-0.2276,-0.2278,-0.228,0,-0.1709,-0.1718,-0.1739,-0.1807,-0.1861,-0.1933,-0.2036,-0.2058,-0.2151,-0.2177,-0.2279,-0.2027,-0.191,-0.1748,-0.1484,-0.1429,-0.1446,-0.1422,-0.1398,-0.1401,-0.1592,-0.1499,-0.119,-0.119,-0.119,-0.119,-0.1191,-0.1191,-0.1644,-0.1622,-0.1649,-0.1701,-0.176,-0.1788,-0.1833,-0.1868,-0.1843,-0.1697,-0.1491,-0.1442,-0.1149,-0.1098,-0.0854,-0.0859,-0.0847,-0.0964,-0.1074,-0.1032,-0.1085,-0.1136,-0.1039,-0.0639,-0.0639,-0.0708,-0.0709,-0.0709]},{"header":{"parameterUnit":"m.s-1","parameterCategory":2,"la1":30.2991,"la2":30.254,"lo1":-89.0895,"lo2":-89.0444,"dy":0.0017,"dx":0.0017,"nx":28,"ny":28,"refTime":"2025-07-22T03:00:00:Z","depth":"0","parameterNumber":3,"parameterNumberName":"V-component_of_CURRENTS"},"data":[0,0,0,0,0,0,0,0,0,0,0,0,0,0,0,0,0,0,0,0,0,0,0,0,0,0,0,0,0,0,0,0,0,0,0,0,0,0,0,0,0,0,0,0,0,0,0,0,0,0,0,0,0,0,0,0,0,0,-0.0938,-0.0939,0,-0.0951,-0.0951,-0.0951,-0.0884,-0.0883,-0.0881,-0.0879,-0.0762,-0.0761,-0.0759,0,0,0,0,0,0,0,0,0,0,0,0,0,-0.0876,-0.0878,-0.0938,-0.0939,-0.0939,-0.0951,-0.0951,-0.0951,-0.0885,-0.0882,-0.088,-0.0878,-0.0762,-0.0761,-0.0759,0,0,0,0,0,0,0,0,0,0,0,0,0,-0.0897,-0.0878,-0.0938,-0.0907,-0.0905,-0.0951,-0.0951,-0.0951,-0.0885,-0.0882,-0.088,-0.0877,-0.0763,-0.0761,-0.0759,-0.0803,0,0,-0.0753,-0.0752,0,0,0,0,0,0,0,0,-0.0896,-0.09,-0.0912,-0.091,-0.0907,-0.0914,-0.0887,-0.0895,-0.0886,-0.0892,-0.0879,-0.0876,-0.0803,-0.0798,-0.0807,-0.0797,-0.0792,-0.0752,-0.0751,-0.075,-0.075,0,0,0,0,0,0,0,-0.0895,-0.0899,-0.0943,-0.0912,-0.0909,-0.09,-0.0899,-0.0889,-0.0861,-0.0891,-0.0887,-0.089,-0.08,-0.081,-0.0804,-0.0791,-0.0753,-0.0751,-0.0749,-0.0749,-0.0793,-0.0795,0,0,0,0,0,0,-0.0897,-0.0898,-0.0942,-0.0943,-0.0895,-0.0903,-0.0903,-0.0914,-0.0863,-0.0854,-0.0892,-0.0887,-0.0815,-0.0806,-0.0799,-0.0835,-0.075,-0.0748,-0.0747,-0.0791,-0.0794,-0.0796,0,0,0,0,0,0,-0.0896,-0.0901,-0.0942,-0.092,-0.0925,-0.0907,-0.092,-0.0916,-0.0914,-0.0865,-0.0853,-0.0894,-0.0812,-0.0802,-0.0803,-0.0829,-0.0748,-0.0746,-0.0788,-0.0792,-0.0795,-0.0913,0,0,0,0,0,0,-0.0894,-0.0901,-0.0911,-0.0921,-0.0926,-0.0976,-0.0923,-0.0918,-0.0921,-0.0914,-0.0863,-0.085,-0.0809,-0.0807,-0.0801,-0.0825,-0.0744,-0.0785,-0.0789,-0.0794,-0.0906,-0.092,-0.0932,0,0,0,0,0,-0.0892,-0.0924,-0.0912,-0.0917,-0.0941,-0.0977,-0.098,-0.0957,-0.0924,-0.0941,-0.0911,-0.0851,-0.083,-0.0808,-0.08,-0.0824,-0.0783,-0.0788,-0.0793,-0.09,-0.0917,-0.0932,0,0,0,0,0,0,-0.0904,-0.0921,-0.0907,-0.0942,-0.0958,-0.0966,-0.098,-0.0966,-0.096,-0.0944,-0.0888,-0.0875,-0.0882,-0.0849,-0.0826,-0.0853,-0.0795,-0.0799,-0.0879,-0.0894,-0.0907,-0.0959,-0.0742,0,0,0,0,0,-0.0914,-0.0939,-0.0952,-0.098,-0.0988,-0.0985,-0.0995,-0.0985,-0.0981,-0.0975,-0.0949,-0.092,-0.0906,-0.0895,-0.0879,-0.0902,-0.0903,-0.0912,-0.0925,-0.0936,-0.0977,-0.1013,-0.1033,-0.0814,-0.0814,-0.0814,0,0,-0.0927,-0.094,-0.0953,-0.0984,-0.099,-0.1036,-0.0984,-0.1009,-0.1049,-0.0964,-0.1005,-0.0964,-0.0923,-0.0945,-0.0945,-0.0916,-0.0999,-0.0943,-0.0953,-0.0988,-0.1021,-0.1042,-0.1061,-0.0818,-0.0817,-0.0816,0,0,-0.0984,-0.0977,-0.1022,-0.1043,-0.1064,-0.107,-0.108,-0.1097,-0.1099,-0.1136,-0.1083,-0.1082,-0.1057,-0.1053,-0.1039,-0.1124,-0.1066,-0.1092,-0.1201,-0.1235,-0.1253,-0.127,-0.1297,-0.1315,-0.1099,-0.11,-0.11,0,-0.0997,-0.1065,-0.1042,-0.1095,-0.1133,-0.1092,-0.1165,-0.1169,-0.1188,-0.1219,-0.1159,-0.1177,-0.1123,-0.1176,-0.1189,-0.1156,-0.1156,-0.1137,-0.1253,-0.1269,-0.1284,-0.1308,-0.1326,-0.1106,-0.1105,-0.1105,-0.1104,0,-0.1094,-0.1148,-0.1178,-0.1234,-0.1265,-0.1322,-0.1329,-0.1359,-0.1347,-0.1357,-0.1403,-0.1353,-0.1366,-0.1336,-0.1277,-0.1358,-0.1317,-0.1262,-0.1214,-0.1314,-0.1331,-0.1349,-0.1115,-0.1113,-0.1111,-0.1109,0,0,-0.113,-0.1233,-0.1245,-0.1316,-0.1354,-0.1404,-0.1463,-0.1536,-0.1595,-0.1582,-0.1673,-0.1633,-0.1595,-0.1581,-0.1512,-0.153,-0.1607,-0.1439,-0.1438,-0.147,-0.168,-0.1527,-0.1529,-0.1558,-0.1562,-0.1565,-0.1649,0,-0.1223,-0.1377,-0.1394,-0.154,-0.1625,-0.1621,-0.1692,-0.1736,-0.1745,-0.181,-0.1771,-0.1802,-0.1688,-0.1682,-0.1691,-0.1618,-0.1657,-0.159,-0.1577,-0.1578,-0.1432,-0.1546,-0.1321,-0.1366,-0.1665,-0.1668,-0.167,0,-0.131,-0.1418,-0.1587,-0.1736,-0.177,-0.1839,-0.1959,-0.2012,-0.2058,-0.2061,-0.208,-0.2026,-0.2045,-0.1924,-0.1914,-0.1867,-0.1805,-0.175,-0.1751,-0.1587,-0.1457,-0.1315,-0.1385,-0.1049,-0.1695,-0.1693,-0.1691,0,-0.1368,-0.1549,-0.1705,-0.1753,-0.1897,-0.1976,-0.2039,-0.2099,-0.2155,-0.2213,-0.2242,-0.2253,-0.2233,-0.2191,-0.2031,-0.1986,-0.201,-0.1934,-0.1766,-0.1754,-0.1553,-0.1516,-0.1301,-0.1983,-0.1983,-0.1983,-0.1983,0,-0.1452,-0.1562,-0.1755,-0.1832,-0.2026,-0.2074,-0.2227,-0.2275,-0.234,-0.241,-0.2367,-0.2402,-0.229,-0.2252,-0.2137,-0.1992,-0.2099,-0.1829,-0.178,-0.1584,-0.1551,-0.1238,-0.1144,-0.1986,-0.1985,-0.1985,-0.1984,0,-0.1431,-0.1564,-0.1757,-0.1974,-0.205,-0.2172,-0.2325,-0.2418,-0.2454,-0.2542,-0.2557,-0.2529,-0.2467,-0.2355,-0.2267,-0.2096,-0.1808,-0.1926,-0.1691,-0.1613,-0.1106,-0.103,-0.0967,-0.0826,-0.1778,-0.1775,-0.1773,0,-0.1401,-0.1514,-0.1835,-0.198,-0.2076,-0.2258,-0.2374,-0.2465,-0.2535,-0.2602,-0.2644,-0.2613,-0.2567,-0.2381,-0.2097,-0.1912,-0.1723,-0.1566,-0.1441,-0.1078,-0.096,-0.0973,-0.086,-0.1232,-0.1226,-0.122,-0.1216,0,-0.1353,-0.1497,-0.1682,-0.2003,-0.2192,-0.2376,-0.2531,-0.2594,-0.2671,-0.2721,-0.2746,-0.2719,-0.2493,-0.2142,-0.1841,-0.1677,-0.1281,-0.1443,-0.1135,-0.0588,-0.0531,-0.0365,-0.1179,-0.1166,-0.1171,-0.1175,-0.1177,-0.1179,-0.1293,-0.1452,-0.1748,-0.203,-0.2259,-0.2446,-0.252,-0.264,-0.2724,-0.27,-0.2742,-0.2538,-0.2045,-0.1578,-0.142,-0.0728,-0.0955,-0.0459,-0.0428,-0.05,-0.026,-0.0961,-0.0834,-0.0837,-0.084,-0.0842,-0.0844,0,-0.122,-0.147,-0.1751,-0.2106,-0.2308,-0.2435,-0.2594,-0.2588,-0.2623,-0.2505,-0.247,-0.1813,-0.13,-0.0793,0.0021,0.0335,0.0326,0.0489,0.057,0.0612,-0.0021,0.0125,0.055,0.055,0.055,0.0549,0.0549,0.0549,-0.1227,-0.1478,-0.1685,-0.2055,-0.227,-0.2404,-0.2447,-0.2421,-0.228,-0.1893,-0.1449,-0.1193,-0.0382,0.0535,0.128,0.1314,0.1505,0.1427,0.1438,0.1134,0.105,0.097,0.1139,0.177,0.1771,0.2143,0.2147,0.215]}],[{"header":{"parameterUnit":"m.s-1","parameterCategory":2,"la1":30.2991,"la2":30.254,"lo1":-89.0895,"lo2":-89.0444,"dy":0.0017,"dx":0.0017,"nx":28,"ny":28,"refTime":"2025-07-22T03:00:00:Z","depth":"2","parameterNumber":2,"parameterNumberName":"U-component_of_CURRENTS"},"data":[0,0,0,0,0,0,0,0,0,0,0,0,0,0,0,0,0,0,0,0,0,0,0,0,0,0,0,0,0,0,0,0,0,0,0,0,0,0,0,0,0,0,0,0,0,0,0,0,0,0,0,0,0,0,0,0,0,0,-0.2113,-0.2114,0,-0.223,-0.2232,-0.2233,-0.2337,-0.2339,-0.234,-0.2341,-0.2597,-0.2603,-0.2608,0,0,0,0,0,0,0,0,0,0,0,0,0,-0.2005,-0.2006,-0.2113,-0.2114,-0.2116,-0.223,-0.2232,-0.2233,-0.2337,-0.2339,-0.234,-0.2342,-0.2596,-0.2602,-0.2609,0,0,0,0,0,0,0,0,0,0,0,0,0,-0.2079,-0.2007,-0.2113,-0.2182,-0.219,-0.223,-0.2232,-0.2234,-0.2337,-0.2339,-0.2341,-0.2343,-0.2593,-0.2601,-0.261,-0.2621,0,0,-0.2635,-0.2639,0,0,0,0,0,0,0,0,-0.2074,-0.2082,-0.2171,-0.2178,-0.2186,-0.2272,-0.2288,-0.2371,-0.2336,-0.228,-0.2341,-0.2344,-0.2501,-0.2517,-0.2531,-0.2633,-0.2644,-0.2636,-0.2641,-0.2645,-0.2647,0,0,0,0,0,0,0,-0.2069,-0.2078,-0.2158,-0.2172,-0.2182,-0.2217,-0.2229,-0.2303,-0.2379,-0.2285,-0.2293,-0.2307,-0.2506,-0.2522,-0.2538,-0.2648,-0.2636,-0.2643,-0.2648,-0.2652,-0.2828,-0.2828,0,0,0,0,0,0,-0.2054,-0.2073,-0.2154,-0.2162,-0.2135,-0.2217,-0.2231,-0.2242,-0.2376,-0.2397,-0.2305,-0.2312,-0.2507,-0.2528,-0.2548,-0.26,-0.2645,-0.2652,-0.2657,-0.2829,-0.2828,-0.2828,0,0,0,0,0,0,-0.2051,-0.2059,-0.215,-0.2121,-0.2136,-0.2217,-0.2228,-0.2243,-0.2293,-0.239,-0.2415,-0.2344,-0.2509,-0.2536,-0.2656,-0.261,-0.2656,-0.2664,-0.2829,-0.2828,-0.2828,-0.2685,0,0,0,0,0,0,-0.2047,-0.2057,-0.2058,-0.212,-0.2137,-0.2216,-0.2227,-0.2244,-0.2297,-0.2307,-0.2431,-0.2454,-0.2513,-0.2643,-0.2664,-0.2622,-0.267,-0.2829,-0.2829,-0.2828,-0.269,-0.268,-0.2671,0,0,0,0,0,-0.2042,-0.2047,-0.2057,-0.2067,-0.2135,-0.2218,-0.2231,-0.2294,-0.2297,-0.234,-0.2417,-0.2452,-0.2652,-0.2651,-0.2676,-0.2634,-0.283,-0.2829,-0.2828,-0.2695,-0.2682,-0.2671,0,0,0,0,0,0,-0.2016,-0.2059,-0.2072,-0.2093,-0.2166,-0.2237,-0.2261,-0.2301,-0.2387,-0.2398,-0.2479,-0.251,-0.2602,-0.2645,-0.2642,-0.2684,-0.2733,-0.2738,-0.2623,-0.2612,-0.2603,-0.2579,-0.2677,0,0,0,0,0,-0.2001,-0.2009,-0.2079,-0.21,-0.2124,-0.219,-0.2225,-0.2279,-0.2359,-0.2397,-0.248,-0.2549,-0.2607,-0.2637,-0.2729,-0.2753,-0.2787,-0.2735,-0.2725,-0.2716,-0.2714,-0.2702,-0.2689,-0.2825,-0.2825,-0.2825,0,0,-0.1998,-0.202,-0.2028,-0.2093,-0.2134,-0.2165,-0.2218,-0.2287,-0.2307,-0.2413,-0.2474,-0.2558,-0.2623,-0.2665,-0.27,-0.2694,-0.2702,-0.2715,-0.2706,-0.271,-0.2699,-0.2686,-0.2674,-0.2825,-0.2825,-0.2825,0,0,-0.1991,-0.2011,-0.2014,-0.2059,-0.2131,-0.217,-0.2194,-0.2286,-0.2323,-0.2393,-0.2461,-0.2511,-0.2615,-0.2628,-0.2642,-0.263,-0.2684,-0.266,-0.255,-0.2537,-0.2524,-0.2514,-0.2557,-0.2552,-0.2611,-0.261,-0.261,0,-0.1987,-0.1996,-0.2038,-0.2052,-0.2083,-0.2164,-0.2192,-0.2223,-0.2349,-0.2375,-0.2406,-0.2517,-0.257,-0.2568,-0.255,-0.2599,-0.2639,-0.258,-0.2519,-0.251,-0.2501,-0.2548,-0.2544,-0.2603,-0.2604,-0.2605,-0.2606,0,-0.198,-0.1992,-0.2001,-0.2024,-0.2065,-0.2118,-0.2164,-0.2215,-0.2252,-0.2288,-0.235,-0.2411,-0.2467,-0.2461,-0.2493,-0.2455,-0.2523,-0.2537,-0.2535,-0.2478,-0.2533,-0.2531,-0.2593,-0.2596,-0.2598,-0.26,0,0,-0.1967,-0.1992,-0.1994,-0.2006,-0.2064,-0.2106,-0.2114,-0.2167,-0.2179,-0.2238,-0.225,-0.2274,-0.2321,-0.2341,-0.2381,-0.2331,-0.229,-0.2392,-0.2394,-0.2414,-0.2316,-0.2191,-0.2179,-0.2297,-0.2296,-0.2295,-0.2384,0,-0.1961,-0.1972,-0.1987,-0.2008,-0.2027,-0.208,-0.2084,-0.2131,-0.2171,-0.2208,-0.2207,-0.2255,-0.2263,-0.2291,-0.224,-0.2322,-0.2278,-0.2269,-0.239,-0.2395,-0.2269,-0.2167,-0.1947,-0.1992,-0.2383,-0.2382,-0.2382,0,-0.1948,-0.196,-0.1974,-0.2009,-0.2021,-0.2033,-0.2077,-0.2098,-0.2132,-0.2165,-0.2174,-0.2225,-0.2199,-0.2203,-0.2221,-0.2228,-0.2254,-0.2277,-0.2281,-0.221,-0.2262,-0.2113,-0.1974,-0.238,-0.238,-0.238,-0.238,0,-0.1926,-0.1953,-0.1964,-0.1977,-0.2017,-0.2027,-0.205,-0.2088,-0.2111,-0.2142,-0.2179,-0.2175,-0.2226,-0.2196,-0.2259,-0.2242,-0.23,-0.2281,-0.2193,-0.219,-0.2045,-0.2028,-0.2257,-0.2257,-0.2257,-0.2257,-0.2256,0,-0.1916,-0.1924,-0.1952,-0.1958,-0.197,-0.2006,-0.2023,-0.2051,-0.2092,-0.2146,-0.2157,-0.2206,-0.223,-0.2283,-0.2267,-0.2237,-0.2306,-0.2155,-0.2171,-0.1993,-0.1971,-0.2347,-0.2356,-0.226,-0.2259,-0.2259,-0.2258,0,-0.1881,-0.1905,-0.1914,-0.1948,-0.1956,-0.1959,-0.1996,-0.2015,-0.207,-0.2143,-0.2158,-0.2255,-0.2309,-0.2337,-0.2368,-0.228,-0.2239,-0.2224,-0.2041,-0.2025,-0.2139,-0.214,-0.2066,-0.2062,-0.2058,-0.2055,-0.2052,0,-0.1862,-0.1861,-0.1886,-0.1888,-0.1898,-0.1912,-0.1927,-0.1982,-0.2011,-0.2182,-0.2211,-0.2322,-0.2371,-0.2349,-0.219,-0.2095,-0.2235,-0.1868,-0.1717,-0.2079,-0.2104,-0.2111,-0.2118,-0.1514,-0.1507,-0.1502,-0.1497,0,-0.1814,-0.1821,-0.1827,-0.1828,-0.1839,-0.1849,-0.1879,-0.1898,-0.2019,-0.2095,-0.2224,-0.2281,-0.2269,-0.2044,-0.1926,-0.1832,-0.1829,-0.1743,-0.2171,-0.1569,-0.1556,-0.1582,-0.1607,-0.1447,-0.1452,-0.1456,-0.1459,-0.1461,-0.1766,-0.1756,-0.1759,-0.1752,-0.1769,-0.1771,-0.1738,-0.1802,-0.1846,-0.1948,-0.212,-0.2086,-0.2052,-0.1652,-0.1551,-0.1381,-0.1483,-0.1374,-0.1392,-0.1417,-0.1308,-0.1285,-0.1112,-0.1115,-0.1117,-0.1119,-0.1121,0,-0.1694,-0.1688,-0.1682,-0.1665,-0.1641,-0.1678,-0.1691,-0.1638,-0.1652,-0.1758,-0.1831,-0.1598,-0.1399,-0.1342,-0.0948,-0.0849,-0.0856,-0.0843,-0.0857,-0.0903,-0.0945,-0.0815,-0.0488,-0.0487,-0.0486,-0.0485,0,0,-0.1653,-0.1616,-0.161,-0.1532,-0.1519,-0.1442,-0.1418,-0.1376,-0.135,-0.1339,-0.1269,-0.1369,-0.1276,-0.0905,-0.0802,-0.0589,-0.0764,-0.0545,-0.1039,-0.1103,-0.1145,-0.1213,-0.1059,0,0,0,0,0]},{"header":{"parameterUnit":"m.s-1","parameterCategory":2,"la1":30.2991,"la2":30.254,"lo1":-89.0895,"lo2":-89.0444,"dy":0.0017,"dx":0.0017,"nx":28,"ny":28,"refTime":"2025-07-22T03:00:00:Z","depth":"2","parameterNumber":3,"parameterNumberName":"V-component_of_CURRENTS"},"data":[0,0,0,0,0,0,0,0,0,0,0,0,0,0,0,0,0,0,0,0,0,0,0,0,0,0,0,0,0,0,0,0,0,0,0,0,0,0,0,0,0,0,0,0,0,0,0,0,0,0,0,0,0,0,0,0,0,0,-0.0121,-0.012,0,-0.0003,-0.0002,-0.0,0.012,0.0121,0.0123,0.0124,0.0527,0.0536,0.0546,0,0,0,0,0,0,0,0,0,0,0,0,0,-0.0196,-0.0195,-0.0121,-0.012,-0.0119,-0.0004,-0.0002,0.0,0.012,0.0121,0.0123,0.0125,0.0524,0.0535,0.0547,0,0,0,0,0,0,0,0,0,0,0,0,0,-0.0128,-0.0195,-0.0121,-0.0047,-0.0039,-0.0004,-0.0002,0.0001,0.0119,0.0121,0.0124,0.0126,0.052,0.0534,0.0548,0.0592,0,0,0.0591,0.0597,0,0,0,0,0,0,0,0,-0.0132,-0.0125,-0.0059,-0.0052,-0.0043,0.0044,0.012,0.0212,0.0119,0.0061,0.0124,0.0127,0.0389,0.0414,0.043,0.0611,0.0628,0.0592,0.0601,0.0607,0.0611,0,0,0,0,0,0,0,-0.0137,-0.0129,-0.0072,-0.0058,-0.0048,-0.0003,0.0009,0.0137,0.0219,0.0067,0.0075,0.0084,0.0396,0.0416,0.0442,0.0634,0.0592,0.0605,0.0613,0.0619,0.1027,0.1029,0,0,0,0,0,0,-0.016,-0.0134,-0.0076,-0.0069,-0.0085,-0.0004,0.0009,0.0016,0.0212,0.024,0.0082,0.0089,0.0391,0.0425,0.0457,0.0569,0.0607,0.062,0.0628,0.1024,0.1027,0.103,0,0,0,0,0,0,-0.0163,-0.0157,-0.0081,-0.01,-0.0087,-0.0006,0.0001,0.0017,0.0052,0.022,0.0255,0.0102,0.0394,0.0437,0.0592,0.0584,0.0626,0.0639,0.1022,0.1025,0.1029,0.0764,0,0,0,0,0,0,-0.0165,-0.0158,-0.0162,-0.0102,-0.0087,-0.0045,-0.0001,0.0017,0.0052,0.0063,0.0249,0.0287,0.0399,0.057,0.0606,0.0604,0.065,0.1019,0.1023,0.1027,0.0769,0.0758,0.0748,0,0,0,0,0,-0.0168,-0.0177,-0.0163,-0.0156,-0.0095,-0.0045,-0.0033,0.0034,0.0051,0.0072,0.0198,0.0282,0.0626,0.0582,0.0624,0.0626,0.1016,0.1022,0.1027,0.0774,0.076,0.0748,0,0,0,0,0,0,-0.0204,-0.0164,-0.0147,-0.0141,-0.0094,-0.0025,-0.0011,0.0026,0.013,0.015,0.0301,0.035,0.0498,0.0611,0.0559,0.077,0.084,0.0854,0.0634,0.0622,0.0612,0.0538,0.0662,0,0,0,0,0,-0.0222,-0.0219,-0.0166,-0.016,-0.0145,-0.0085,-0.006,-0.0014,0.0079,0.0124,0.0251,0.0405,0.0548,0.0619,0.078,0.0869,0.0946,0.0912,0.0901,0.089,0.0867,0.0936,0.0925,0.1048,0.1047,0.1047,0,0,-0.0234,-0.0214,-0.021,-0.0168,-0.0134,-0.0114,-0.0062,-0.0026,-0.0003,0.0158,0.0245,0.0388,0.0576,0.069,0.0764,0.0777,0.0906,0.0897,0.0884,0.0868,0.094,0.0927,0.0915,0.1051,0.1051,0.105,0,0,-0.0256,-0.0244,-0.0245,-0.0217,-0.0171,-0.0135,-0.0129,-0.0054,-0.0014,0.0075,0.0209,0.0308,0.0538,0.0625,0.0708,0.0734,0.0865,0.0835,0.0685,0.075,0.0738,0.0728,0.0815,0.0815,0.0801,0.08,0.08,0,-0.0274,-0.0268,-0.0235,-0.0228,-0.0211,-0.0152,-0.0143,-0.0106,0.0015,0.0053,0.0091,0.0362,0.0483,0.0595,0.0591,0.0693,0.0786,0.0693,0.0722,0.0714,0.0708,0.0801,0.0804,0.0788,0.0789,0.0791,0.0792,0,-0.0289,-0.0287,-0.0288,-0.0267,-0.0243,-0.0225,-0.0177,-0.0138,-0.0094,-0.0043,0.0083,0.0217,0.037,0.0419,0.0498,0.0542,0.0642,0.0705,0.0716,0.0677,0.0782,0.0789,0.0771,0.0775,0.0779,0.0782,0,0,-0.0323,-0.0302,-0.0303,-0.03,-0.0261,-0.0242,-0.0223,-0.0175,-0.0158,-0.0074,-0.0035,0.0104,0.0165,0.0263,0.0376,0.0384,0.0381,0.05,0.0509,0.0517,0.0565,0.0627,0.0643,0.0456,0.0456,0.0456,0.0653,0,-0.0342,-0.0344,-0.0325,-0.0326,-0.0324,-0.0281,-0.0268,-0.0221,-0.0169,-0.0113,-0.0038,0.0069,0.0115,0.0179,0.0187,0.0375,0.0392,0.0324,0.0664,0.0674,0.0674,0.0649,0.0566,0.0735,0.0661,0.0663,0.0664,0,-0.0362,-0.0361,-0.0366,-0.0355,-0.0351,-0.0346,-0.0313,-0.029,-0.022,-0.0177,-0.0113,-0.0008,0.0045,0.008,0.0263,0.0237,0.0366,0.0465,0.0478,0.0626,0.0749,0.0773,0.0752,0.0678,0.0676,0.0675,0.0675,0,-0.04,-0.0392,-0.0399,-0.0395,-0.0373,-0.037,-0.0356,-0.0305,-0.0285,-0.0213,-0.018,-0.0073,-0.0002,0.0133,0.0313,0.0313,0.0522,0.0566,0.074,0.0749,0.0788,0.08,0.0667,0.0666,0.0666,0.0665,0.0665,0,-0.0431,-0.0441,-0.042,-0.0427,-0.0436,-0.0409,-0.0407,-0.0378,-0.0331,-0.0306,-0.0215,-0.0162,0.001,0.0159,0.0312,0.055,0.0534,0.0705,0.0791,0.0703,0.0705,0.075,0.0757,0.0673,0.0671,0.067,0.0669,0,-0.0478,-0.0464,-0.0473,-0.0458,-0.0457,-0.0466,-0.0453,-0.0451,-0.04,-0.0363,-0.0342,-0.0209,-0.0019,0.0175,0.0424,0.0568,0.0778,0.0869,0.0761,0.0828,0.0966,0.0959,0.1085,0.1089,0.1092,0.1094,0.1097,0,-0.051,-0.0514,-0.0504,-0.0517,-0.0516,-0.0522,-0.053,-0.0492,-0.0482,-0.0386,-0.0369,-0.019,-0.0053,0.0333,0.0595,0.0896,0.0876,0.1012,0.0961,0.0932,0.1003,0.0991,0.0979,0.0929,0.093,0.093,0.0931,0,-0.056,-0.0547,-0.055,-0.0575,-0.0591,-0.0604,-0.0606,-0.0605,-0.0551,-0.0492,-0.0387,-0.0271,0.0078,0.0372,0.0756,0.0907,0.0949,0.1035,0.104,0.0829,0.0799,0.0864,0.0855,0.0935,0.0934,0.0934,0.0934,0.0933,-0.0599,-0.0606,-0.0605,-0.0634,-0.0659,-0.0683,-0.0699,-0.0678,-0.0642,-0.0554,-0.0401,-0.0167,0.0151,0.0695,0.0862,0.1011,0.1072,0.111,0.1103,0.1096,0.1035,0.1011,0.1177,0.1178,0.1179,0.118,0.1181,0,-0.0642,-0.0644,-0.0669,-0.0698,-0.0745,-0.074,-0.075,-0.075,-0.0711,-0.0527,-0.0381,0.0005,0.0369,0.0632,0.0887,0.1082,0.1001,0.1057,0.0917,0.0916,0.0914,0.0835,0.0929,0.0929,0.0928,0.0927,0,0,-0.0659,-0.0687,-0.069,-0.0769,-0.0802,-0.0863,-0.0874,-0.0843,-0.0706,-0.0555,-0.0316,0.0103,0.0488,0.0649,0.0811,0.0849,0.0817,0.0823,0.1018,0.083,0.0824,0.0954,0.0835,0,0,0,0,0]}],[{"header":{"parameterUnit":"m.s-1","parameterCategory":2,"la1":30.2991,"la2":30.254,"lo1":-89.0895,"lo2":-89.0444,"dy":0.0017,"dx":0.0017,"nx":28,"ny":28,"refTime":"2025-07-22T03:00:00:Z","depth":"4","parameterNumber":2,"parameterNumberName":"U-component_of_CURRENTS"},"data":[0,0,0,0,0,0,0,0,0,0,0,0,0,0,0,0,0,0,0,0,0,0,0,0,0,0,0,0,0,0,0,0,0,0,0,0,0,0,0,0,0,0,0,0,0,0,0,0,0,0,0,0,0,0,0,0,0,0,-0.1487,-0.1487,0,-0.1529,-0.1529,-0.1529,-0.1544,-0.1544,-0.1544,-0.1544,-0.158,-0.1581,-0.1582,0,0,0,0,0,0,0,0,0,0,0,0,0,-0.1426,-0.1427,-0.1487,-0.1487,-0.1488,-0.1529,-0.1529,-0.1529,-0.1544,-0.1544,-0.1544,-0.1544,-0.158,-0.1581,-0.1582,0,0,0,0,0,0,0,0,0,0,0,0,0,-0.1457,-0.1427,-0.1487,-0.1502,-0.1504,-0.1529,-0.1529,-0.153,-0.1544,-0.1544,-0.1544,-0.1544,-0.1579,-0.1581,-0.1582,-0.1589,0,0,-0.1586,-0.1587,0,0,0,0,0,0,0,0,-0.1455,-0.1459,-0.1499,-0.1501,-0.1503,-0.1533,-0.1521,-0.155,-0.1544,-0.1527,-0.1544,-0.1544,-0.1565,-0.1568,-0.1572,-0.1591,-0.1592,-0.1586,-0.1587,-0.1588,-0.1588,0,0,0,0,0,0,0,-0.1453,-0.1457,-0.1501,-0.15,-0.1502,-0.1509,-0.1513,-0.1526,-0.1543,-0.1528,-0.153,-0.1538,-0.1566,-0.1571,-0.1573,-0.1593,-0.1586,-0.1587,-0.1588,-0.1589,-0.1636,-0.1636,0,0,0,0,0,0,-0.1452,-0.1455,-0.15,-0.1503,-0.1481,-0.1511,-0.1515,-0.1522,-0.1543,-0.1547,-0.1538,-0.1539,-0.1569,-0.1572,-0.1575,-0.1626,-0.1588,-0.1589,-0.159,-0.1635,-0.1636,-0.1636,0,0,0,0,0,0,-0.145,-0.1455,-0.1498,-0.1482,-0.1488,-0.1512,-0.1519,-0.1523,-0.155,-0.1551,-0.1554,-0.1565,-0.1569,-0.1573,-0.1598,-0.1626,-0.1589,-0.1591,-0.1635,-0.1636,-0.1636,-0.1702,0,0,0,0,0,0,-0.1448,-0.1454,-0.147,-0.1481,-0.1489,-0.1524,-0.1519,-0.1523,-0.1555,-0.1557,-0.1575,-0.1577,-0.1569,-0.1596,-0.1599,-0.1627,-0.1592,-0.1634,-0.1635,-0.1636,-0.1699,-0.1704,-0.1709,0,0,0,0,0,-0.1446,-0.1464,-0.147,-0.1476,-0.1505,-0.1525,-0.1529,-0.1545,-0.1557,-0.157,-0.1581,-0.1578,-0.1603,-0.1598,-0.1602,-0.163,-0.1634,-0.1635,-0.1636,-0.1697,-0.1703,-0.1709,0,0,0,0,0,0,-0.1449,-0.1468,-0.1474,-0.1499,-0.1516,-0.1528,-0.155,-0.1561,-0.1582,-0.1591,-0.1589,-0.1592,-0.162,-0.1614,-0.1608,-0.1642,-0.1616,-0.1618,-0.1661,-0.1667,-0.1672,-0.168,-0.1593,0,0,0,0,0,-0.1456,-0.1476,-0.149,-0.1514,-0.1525,-0.1543,-0.1559,-0.1569,-0.1585,-0.1596,-0.1607,-0.1616,-0.1624,-0.1638,-0.1638,-0.1668,-0.1646,-0.1684,-0.1689,-0.1694,-0.1701,-0.1691,-0.1696,-0.164,-0.164,-0.164,0,0,-0.1466,-0.148,-0.1492,-0.1516,-0.1533,-0.1554,-0.1553,-0.1584,-0.1608,-0.1596,-0.1638,-0.1637,-0.1633,-0.1657,-0.167,-0.1661,-0.1695,-0.1695,-0.17,-0.1704,-0.1693,-0.1698,-0.1703,-0.164,-0.164,-0.164,0,0,-0.1485,-0.1507,-0.1524,-0.1541,-0.157,-0.158,-0.1595,-0.1619,-0.1639,-0.1669,-0.1666,-0.1686,-0.17,-0.1707,-0.171,-0.1746,-0.1718,-0.1743,-0.1787,-0.1778,-0.1783,-0.1787,-0.1755,-0.1756,-0.1752,-0.1752,-0.1753,0,-0.1497,-0.1519,-0.1534,-0.1553,-0.1576,-0.1596,-0.1621,-0.1643,-0.1674,-0.1691,-0.1688,-0.1714,-0.1723,-0.1753,-0.1767,-0.1762,-0.1738,-0.1769,-0.1787,-0.179,-0.1793,-0.1759,-0.1759,-0.1756,-0.1755,-0.1755,-0.1755,0,-0.1515,-0.1546,-0.1562,-0.1592,-0.1616,-0.1645,-0.1672,-0.1702,-0.1726,-0.174,-0.1775,-0.1781,-0.1794,-0.1804,-0.1803,-0.1834,-0.1802,-0.179,-0.1775,-0.1803,-0.1765,-0.1764,-0.176,-0.1759,-0.1758,-0.1757,0,0,-0.1506,-0.1564,-0.1572,-0.1596,-0.1642,-0.166,-0.1708,-0.1746,-0.1777,-0.1803,-0.1833,-0.1864,-0.1865,-0.1868,-0.1871,-0.1879,-0.1888,-0.1854,-0.1852,-0.1828,-0.1847,-0.1721,-0.1707,-0.1878,-0.1878,-0.1878,-0.1808,0,-0.1519,-0.1565,-0.1592,-0.1644,-0.167,-0.1708,-0.1747,-0.1785,-0.1814,-0.1845,-0.1864,-0.1884,-0.189,-0.1898,-0.1911,-0.189,-0.1889,-0.1907,-0.1818,-0.1815,-0.1705,-0.1703,-0.188,-0.1807,-0.1807,-0.1807,-0.1806,0,-0.1518,-0.1554,-0.1608,-0.1672,-0.1688,-0.1723,-0.1785,-0.182,-0.1866,-0.1885,-0.1912,-0.1915,-0.1942,-0.1933,-0.1919,-0.1926,-0.1897,-0.1877,-0.1874,-0.1734,-0.1686,-0.1774,-0.1804,-0.1804,-0.1804,-0.1804,-0.1804,0,-0.149,-0.1561,-0.1609,-0.1632,-0.1705,-0.1741,-0.1779,-0.1833,-0.1855,-0.1906,-0.1905,-0.1942,-0.1933,-0.1927,-0.1893,-0.1906,-0.1852,-0.1856,-0.1712,-0.1702,-0.1811,-0.1807,-0.1839,-0.184,-0.184,-0.184,-0.184,0,-0.1477,-0.1517,-0.1605,-0.1628,-0.168,-0.1735,-0.1782,-0.1824,-0.1867,-0.1864,-0.1918,-0.1892,-0.193,-0.1899,-0.1887,-0.1779,-0.184,-0.1711,-0.1676,-0.1836,-0.1837,-0.1808,-0.1806,-0.1837,-0.1838,-0.1838,-0.1839,0,-0.1428,-0.1492,-0.1549,-0.164,-0.1667,-0.17,-0.1764,-0.1786,-0.1834,-0.1826,-0.1834,-0.1848,-0.1793,-0.1806,-0.1774,-0.1729,-0.1672,-0.1619,-0.1773,-0.1749,-0.1531,-0.1533,-0.145,-0.1445,-0.1441,-0.1437,-0.1434,0,-0.1405,-0.1433,-0.1538,-0.1567,-0.161,-0.1665,-0.1692,-0.176,-0.1762,-0.1764,-0.1735,-0.1705,-0.1697,-0.1533,-0.1585,-0.1537,-0.1526,-0.1495,-0.154,-0.1517,-0.1492,-0.1501,-0.1508,-0.1428,-0.1427,-0.1425,-0.1424,0,-0.1353,-0.1406,-0.1451,-0.1506,-0.1549,-0.1578,-0.1614,-0.1602,-0.1642,-0.1697,-0.1569,-0.1517,-0.1443,-0.1417,-0.1384,-0.1362,-0.1524,-0.1451,-0.146,-0.1502,-0.1489,-0.147,-0.1482,-0.141,-0.1412,-0.1413,-0.1414,0,-0.1312,-0.1329,-0.139,-0.142,-0.1474,-0.1464,-0.1499,-0.1465,-0.1464,-0.1467,-0.1412,-0.1378,-0.1395,-0.1321,-0.1294,-0.126,-0.1253,-0.1237,-0.1257,-0.1274,-0.1255,-0.1216,-0.1011,0,0,0,0,0,-0.1262,-0.1262,-0.1292,-0.1314,-0.136,-0.1378,-0.1429,-0.146,-0.1493,-0.1358,-0.1376,-0.1292,-0.1205,-0.1203,-0.1131,-0.1257,-0.1295,-0.1175,-0.1296,-0.1327,-0.1345,-0.1343,0,0,0,0,0,0,-0.1225,-0.1256,-0.1257,-0.1211,-0.12,-0.1221,-0.125,-0.1277,-0.1205,-0.1239,-0.1191,-0.1215,-0.1157,-0.1206,-0.1096,-0.1102,-0.1156,-0.1175,-0.1172,-0.1318,-0.1333,-0.1347,-0.1351,0,0,0,0,0]},{"header":{"parameterUnit":"m.s-1","parameterCategory":2,"la1":30.2991,"la2":30.254,"lo1":-89.0895,"lo2":-89.0444,"dy":0.0017,"dx":0.0017,"nx":28,"ny":28,"refTime":"2025-07-22T03:00:00:Z","depth":"4","parameterNumber":3,"parameterNumberName":"V-component_of_CURRENTS"},"data":[0,0,0,0,0,0,0,0,0,0,0,0,0,0,0,0,0,0,0,0,0,0,0,0,0,0,0,0,0,0,0,0,0,0,0,0,0,0,0,0,0,0,0,0,0,0,0,0,0,0,0,0,0,0,0,0,0,0,-0.0132,-0.0132,0,-0.0091,-0.0091,-0.009,-0.0058,-0.0058,-0.0058,-0.0057,-0.0018,-0.0017,-0.0017,0,0,0,0,0,0,0,0,0,0,0,0,0,-0.0157,-0.0157,-0.0133,-0.0132,-0.0131,-0.0091,-0.0091,-0.009,-0.0059,-0.0058,-0.0058,-0.0057,-0.0018,-0.0017,-0.0016,0,0,0,0,0,0,0,0,0,0,0,0,0,-0.0135,-0.0157,-0.0133,-0.011,-0.0108,-0.0091,-0.0091,-0.009,-0.0059,-0.0058,-0.0058,-0.0057,-0.0019,-0.0017,-0.0016,-0.002,0,0,-0.0013,-0.0012,0,0,0,0,0,0,0,0,-0.0136,-0.0134,-0.0114,-0.0112,-0.0109,-0.0079,-0.0085,-0.0067,-0.0059,-0.0078,-0.0057,-0.0057,-0.0039,-0.0036,-0.003,-0.0018,-0.0016,-0.0013,-0.0012,-0.0012,-0.0011,0,0,0,0,0,0,0,-0.0138,-0.0135,-0.0117,-0.0114,-0.0111,-0.0094,-0.009,-0.0081,-0.0062,-0.0076,-0.0074,-0.0069,-0.0037,-0.0031,-0.0029,-0.0015,-0.0013,-0.0012,-0.0011,-0.0011,-0.0009,-0.001,0,0,0,0,0,0,-0.0144,-0.0137,-0.0118,-0.0115,-0.0121,-0.0094,-0.009,-0.009,-0.0062,-0.0057,-0.0069,-0.0067,-0.0033,-0.003,-0.0027,-0.0016,-0.0012,-0.0011,-0.001,-0.0009,-0.0009,-0.001,0,0,0,0,0,0,-0.0145,-0.0143,-0.0119,-0.0125,-0.012,-0.0094,-0.0094,-0.0089,-0.0082,-0.0056,-0.0052,-0.0067,-0.0033,-0.0029,-0.0022,-0.0015,-0.001,-0.0009,-0.0008,-0.0009,-0.001,-0.0002,0,0,0,0,0,0,-0.0146,-0.0144,-0.0149,-0.0125,-0.012,-0.0114,-0.0094,-0.0089,-0.0079,-0.0077,-0.0053,-0.0049,-0.0032,-0.0024,-0.0021,-0.0013,-0.0008,-0.0007,-0.0008,-0.0009,-0.0001,-0.0003,-0.0003,0,0,0,0,0,-0.0147,-0.0158,-0.015,-0.0147,-0.0127,-0.0115,-0.0111,-0.009,-0.008,-0.0081,-0.0064,-0.0049,-0.0029,-0.0023,-0.002,-0.0011,-0.0007,-0.0008,-0.0009,-0.0001,-0.0002,-0.0003,0,0,0,0,0,0,-0.0171,-0.0154,-0.0145,-0.015,-0.0135,-0.0109,-0.011,-0.0094,-0.0082,-0.0081,-0.0055,-0.005,-0.0044,-0.0036,-0.003,-0.0018,-0.0016,-0.0017,-0.0011,-0.0013,-0.0014,0.0004,-0.0007,0,0,0,0,0,-0.0179,-0.0183,-0.0161,-0.0165,-0.016,-0.0136,-0.0129,-0.0115,-0.0099,-0.0092,-0.0074,-0.006,-0.0048,-0.0037,-0.0031,-0.0021,0.002,-0.0017,-0.0018,-0.0018,-0.0004,0.0072,0.0081,-0.0015,-0.0015,-0.0015,0,0,-0.019,-0.0181,-0.0183,-0.0171,-0.0158,-0.0153,-0.0131,-0.0125,-0.0115,-0.0091,-0.0079,-0.0067,-0.005,-0.0038,-0.0034,-0.0027,0.0026,-0.002,-0.002,-0.0006,0.0072,0.0082,0.0091,-0.0016,-0.0015,-0.0015,0,0,-0.0209,-0.0205,-0.0212,-0.0202,-0.0187,-0.0171,-0.0171,-0.0148,-0.0134,-0.0124,-0.0102,-0.0074,-0.0073,-0.0035,-0.0022,-0.0025,0.0012,-0.0043,-0.0021,0.0052,0.0062,0.0071,0.0126,0.014,-0.0035,-0.0035,-0.0035,0,-0.0221,-0.0223,-0.0211,-0.0212,-0.0204,-0.0181,-0.018,-0.0164,-0.0141,-0.012,-0.0126,-0.0078,-0.006,-0.0012,-0.0015,-0.002,0.0012,-0.0014,0.0056,0.0066,0.0075,0.0129,0.0145,-0.0035,-0.0035,-0.0035,-0.0035,0,-0.0238,-0.024,-0.0244,-0.0235,-0.0228,-0.0225,-0.02,-0.0189,-0.0172,-0.0143,-0.0105,-0.0072,-0.0035,-0.003,-0.0023,0.0044,0.0042,0.0043,0.0068,0.0086,0.0141,0.0157,-0.0035,-0.0035,-0.0035,-0.0035,0,0,-0.0261,-0.0256,-0.0257,-0.0254,-0.0238,-0.0232,-0.0217,-0.0184,-0.0162,-0.0131,-0.0089,-0.0047,-0.0018,-0.0,0.0023,0.009,0.0182,0.0089,0.0093,0.016,0.0331,0.0288,0.0302,0.0193,0.0196,0.0198,0.034,0,-0.0274,-0.0281,-0.0272,-0.0273,-0.0271,-0.0246,-0.0233,-0.02,-0.0169,-0.0128,-0.0062,-0.0028,-0.0011,0.0007,0.008,0.0144,0.0225,0.0142,0.029,0.0294,0.0269,0.0319,0.0207,0.0352,0.0356,0.0359,0.0361,0,-0.0289,-0.0289,-0.0296,-0.0283,-0.0279,-0.0279,-0.0243,-0.0227,-0.0162,-0.0135,-0.007,-0.0029,0.0067,0.0073,0.0239,0.0178,0.0261,0.0322,0.0329,0.0303,0.0282,0.0332,0.039,0.0388,0.0386,0.0384,0.0382,0,-0.0305,-0.0304,-0.0309,-0.0307,-0.0291,-0.0287,-0.0277,-0.0228,-0.021,-0.0136,-0.011,0.0003,0.0054,0.0178,0.0295,0.0271,0.0477,0.0463,0.0515,0.0512,0.0506,0.0495,0.0612,0.0612,0.0612,0.0611,0.0611,0,-0.0317,-0.0324,-0.0321,-0.0326,-0.033,-0.031,-0.0303,-0.0274,-0.0229,-0.0201,-0.0118,-0.0065,0.0083,0.0205,0.0315,0.046,0.0503,0.054,0.0558,0.05,0.0487,0.0517,0.0504,0.0617,0.0615,0.0614,0.0613,0,-0.0338,-0.0336,-0.0345,-0.0339,-0.0342,-0.0348,-0.0343,-0.0337,-0.0286,-0.0247,-0.0225,-0.01,0.006,0.0216,0.0423,0.0476,0.0625,0.0674,0.0601,0.0609,0.0606,0.0592,0.0746,0.0746,0.0746,0.0746,0.0746,0,-0.0353,-0.0357,-0.0366,-0.0386,-0.0391,-0.04,-0.0413,-0.0375,-0.0368,-0.0266,-0.025,-0.0088,0.001,0.0279,0.0431,0.0655,0.0676,0.0732,0.0676,0.0624,0.0626,0.0612,0.0598,0.0746,0.0746,0.0746,0.0746,0,-0.0377,-0.038,-0.0389,-0.043,-0.0456,-0.0474,-0.0485,-0.048,-0.0427,-0.0374,-0.0251,-0.0105,0.0078,0.0275,0.0453,0.0606,0.0676,0.0732,0.0732,0.068,0.0626,0.0624,0.0611,0.0745,0.0745,0.0745,0.0745,0,-0.0404,-0.0416,-0.0438,-0.0473,-0.0515,-0.0547,-0.0536,-0.0508,-0.0479,-0.0361,-0.0315,-0.0101,0.0033,0.0253,0.0416,0.0561,0.0582,0.0585,0.0593,0.0595,0.0492,0.0397,0.0484,0,0,0,0,0,-0.0427,-0.0448,-0.0484,-0.0524,-0.057,-0.0592,-0.0591,-0.0571,-0.051,-0.0432,-0.037,-0.0189,0.0068,0.0191,0.0333,0.0392,0.0586,0.0554,0.0587,0.0744,0.0745,0.0643,0,0,0,0,0,0,-0.0445,-0.048,-0.0489,-0.0568,-0.061,-0.0656,-0.0658,-0.0612,-0.0553,-0.0462,-0.0308,-0.0204,0.0063,-0.0008,0.0323,0.0369,0.0394,0.0695,0.0696,0.0744,0.0744,0.0745,0.064,0,0,0,0,0]}]]